Location: Bishopstone
(51.0167°N, 1.9000°W)
Time: 08:56:47
(UTC+00:00)

Cosmos 1300 Rocket - Pass Details

Date: 16 September 2019
Orbit: 602 x 626 km, 82.5° (Epoch: 14 October)

Event Time Altitude Azimuth Distance (km) Brightness Sun altitude
Rises 19:18:32 0° 193° (SSW) 2,850 6.9 -9.8°
Reaches altitude 10° 19:20:45 10° 195° (SSW) 1,949 6.1 -10.2°
Maximum altitude 19:25:03 75° 281° (WNW) 631 3.8 -10.8°
Drops below altitude 10° 19:29:23 10° 7° (N) 1,961 6.3 -11.5°
Sets 19:31:37 0° 10° (N) 2,870 7.1 -11.8°
